Theta_e
307 307 307 306 306 304 298 288 289 299 299 291 287 285 290 296 295 296 295 293 291 290 290 289 289 288 291 295 296 290 292 291 287 290 292 293 290 285 284 281 280 281 281 281
307 306 307 306 306 304 294 287 287 298 296 284 284 289 292 294 293 292 293 293 295 293 290 287 293 291 295 295 293 288 288 282 278 281 284 288 286 287 285 282 281 278 277 279
306 306 306 306 305 304 293 288 285 289 290 288 286 286 288 290 296 294 294 293 294 291 290 290 289 291 295 295 298 299 293 282 281 278 281 284 283 286 286 282 275 279 279 282
305 305 306 306 305 304 293 288 284 286 282 284 285 286 289 289 290 293 292 290 292 290 285 286 287 290 290 293 295 290 286 280 284 285 286 286 285 286 286 283 283 279 281 282
305 305 305 306 305 302 291 287 286 288 285 286 286 287 286 289 290 290 288 287 291 290 286 287 285 288 287 287 290 285 284 279 282 281 286 286 284 286 286 285 284 282 283 282
304 304 304 305 306 299 288 289 289 287 286 285 284 285 287 289 290 291 291 289 287 286 289 291 291 291 290 289 287 285 283 280 278 276 284 285 279 284 285 285 286 285 283 286
304 304 304 304 305 300 290 288 287 284 281 285 286 288 288 288 289 288 291 290 285 290 293 292 290 289 289 288 288 287 282 280 279 274 280 270 283 291 291 288 290 290 290 290
303 303 304 303 303 304 292 289 288 284 281 285 286 288 287 288 288 287 289 291 292 291 289 284 282 282 284 287 288 285 286 283 275 272 274 281 286 290 289 285 285 291 289 291
303 303 303 303 303 303 292 290 289 286 281 281 289 286 286 283 282 285 288 291 292 289 286 283 279 278 282 283 285 288 288 285 280 279 271 270 283 292 294 290 280 291 291 290
303 303 303 303 303 303 294 290 289 287 282 286 286 283 282 285 283 282 285 288 289 288 282 281 279 280 286 280 281 280 280 281 277 276 273 280 289 294 294 279 279 290 292 291
303 303 302 302 303 302 294 290 291 288 286 285 289 290 285 285 283 280 283 284 286 286 281 279 280 279 282 282 283 281 280 277 277 279 276 276 292 291 284 286 288 291 291 291
302 302 302 303 302 302 298 287 291 294 286 285 289 292 293 291 289 284 284 283 284 285 282 281 280 279 279 279 277 284 278 282 278 280 279 285 290 289 292 291 290 291 291 293
302 302 302 302 301 302 300 294 295 288 283 284 284 286 290 292 292 292 283 283 286 286 287 283 281 279 280 277 278 281 281 284 280 281 282 285 288 291 292 293 292 293 293 293
302 301 301 301 302 301 301 290 289 289 285 282 282 291 289 294 291 291 291 287 288 287 285 281 281 280 282 278 280 279 282 282 280 280 284 288 290 292 293 293 294 293 294 294
302 302 301 302 301 301 295 290 289 291 286 282 282 288 289 289 289 289 290 289 285 284 283 285 283 280 280 279 280 278 282 281 280 280 286 287 288 292 293 293 292 293 291 291
302 302 301 300 301 299 289 283 297 298 297 287 283 285 287 288 289 289 289 288 287 285 283 282 284 284 281 275 276 282 285 287 288 286 289 290 292 293 294 292 291 292 292 292
302 301 300 301 301 293 287 283 294 297 291 282 279 279 287 289 290 288 288 290 288 289 284 282 282 282 281 278 277 284 286 287 288 292 291 290 291 291 292 292 293 294 293 293
301 300 300 301 301 298 288 290 297 298 288 283 280 279 282 292 290 287 288 286 288 286 286 283 282 282 281 278 283 285 288 289 290 292 293 292 293 292 293 293 292 292 291 292
299 300 301 296 294 289 291 300 300 293 287 281 282 277 278 290 288 288 289 287 283 286 285 286 285 282 281 283 284 286 288 288 289 291 292 290 290 292 293 292 291 290 290 291
299 296 291 287 292 300 299 290 290 288 288 288 282 284 278 282 282 283 286 288 287 283 286 286 283 280 286 287 288 289 290 290 291 288 288 290 290 291 292 291 291 291 290 290
293 290 287 294 298 291 287 284 282 285 282 283 283 282 279 283 278 280 286 287 286 281 285 285 284 277 285 290 291 292 292 292 293 293 292 291 291 292 292 292 292 292 291 288
292 292 293 290 286 284 283 281 282 282 280 283 281 283 284 282 283 282 285 283 286 281 289 285 281 284 288 291 292 291 292 292 292 294 293 293 294 294 293 293 292 292 291 290
292 289 286 283 283 277 278 278 281 278 285 288 289 286 289 282 284 283 282 277 280 290 285 279 281 287 291 292 292 292 293 294 294 293 294 294 294 294 294 293 293 292 291 291
285 282 276 280 279 281 281 282 280 286 287 287 288 286 287 288 282 284 282 283 286 282 278 281 285 287 292 294 294 293 293 294 294 294 293 292 293 293 294 292 291 291 291 291
283 282 275 280 285 287 287 288 287 289 291 290 287 287 287 287 284 287 284 284 281 278 281 284 287 290 293 294 294 293 293 293 293 294 292 292 293 293 291 291 291 291 292 291
285 282 280 282 282 282 284 286 286 290 290 291 290 287 286 285 286 284 283 282 281 284 286 288 289 291 293 294 296 295 295 293 293 293 293 293 293 293 292 292 291 290 291 290
283 280 281 280 281 282 283 286 286 287 285 283 287 283 282 286 284 282 285 284 287 289 289 289 290 292 292 292 293 297 297 296 295 294 294 294 293 292 293 291 291 290 290 291
Wind_Speed
19 21 24 27 30 32 8 4 4 5 7 6 2 1 5 5 3 3 3 4 3 2 3 5 4 3 3 7 1 3 1 3 2 1 4 4 4 2 3 5 2 1 2 6
18 19 22 25 26 25 3 3 4 6 4 4 4 7 5 3 5 2 1 2 2 3 2 1 3 3 2 7 4 2 3 1 2 8 5 2 6 1 4 5 3 5 5 5
17 18 20 23 26 25 3 3 5 6 6 1 3 5 5 7 9 3 2 2 2 5 2 3 3 2 0 5 2 9 4 2 6 7 5 2 3 4 3 5 4 3 6 4
17 19 20 22 25 24 2 4 1 1 5 3 2 1 3 5 5 5 5 3 1 1 3 0 2 2 2 2 4 4 4 3 3 4 5 3 4 6 4 7 5 6 4 7
15 17 19 20 22 20 5 3 4 5 3 4 4 3 1 4 6 4 4 2 1 1 3 4 5 3 3 4 0 2 2 3 1 4 7 5 6 9 8 7 4 6 6 8
13 14 16 18 19 11 3 2 2 3 3 4 2 1 3 3 4 4 5 4 2 3 5 5 5 5 4 3 6 6 5 6 3 4 3 3 6 9 8 4 4 5 5 6
12 12 13 14 14 7 2 1 1 3 4 2 2 4 5 6 5 4 7 4 1 3 4 2 2 2 4 5 7 6 6 6 3 3 2 1 4 3 3 4 3 3 3 3
11 11 11 12 12 11 2 0 2 2 4 3 7 4 3 6 6 3 3 2 1 4 4 2 3 4 2 2 5 4 4 5 3 4 3 5 3 0 1 3 5 2 3 3
10 10 10 10 10 9 3 0 2 2 1 4 2 2 2 2 4 6 4 5 5 2 3 2 4 4 2 2 2 5 4 4 5 3 4 5 4 2 3 3 5 2 1 5
10 9 10 9 8 8 2 2 2 3 2 5 1 3 2 2 1 3 4 7 7 3 2 2 4 4 2 3 2 4 2 2 4 2 3 7 4 3 1 4 7 2 3 6
11 9 10 9 7 7 3 3 2 3 2 6 5 3 4 1 2 2 4 5 2 2 1 3 4 3 3 1 1 2 4 5 3 2 1 5 1 3 3 6 3 4 6 7
8 9 10 11 6 7 3 1 1 1 3 7 3 7 9 7 8 4 2 3 2 4 2 0 1 1 1 1 2 2 1 4 4 7 6 5 3 2 5 4 6 7 6 11
7 8 9 9 9 9 3 2 0 2 2 5 3 4 3 3 10 9 5 3 4 2 3 3 1 1 2 2 4 1 1 2 2 2 3 3 6 5 5 5 6 8 9 10
8 8 9 10 8 5 3 1 2 3 2 4 7 3 8 6 6 9 7 2 2 3 3 2 2 1 2 3 2 3 5 2 2 4 7 7 4 5 6 8 7 8 7 6
8 8 9 6 5 7 2 3 4 3 4 3 6 9 4 6 4 9 8 9 2 2 2 1 2 1 2 1 1 4 5 6 5 6 6 3 8 7 5 5 6 6 5 6
11 10 6 5 6 5 3 4 1 2 3 3 4 4 5 5 3 5 7 4 3 2 3 3 2 2 3 3 3 6 5 4 5 4 2 7 11 9 3 4 5 6 6 6
9 6 5 7 6 2 2 4 2 3 2 2 5 6 4 4 1 2 3 3 3 2 2 1 2 1 4 2 4 6 4 4 6 6 4 5 2 4 5 4 5 6 6 6
2 2 8 9 10 5 3 4 10 5 1 2 3 5 5 5 3 2 1 3 1 1 2 1 2 1 2 3 8 6 6 7 7 4 4 6 6 4 1 2 4 6 7 9
2 6 9 3 1 1 3 5 6 2 3 1 2 2 3 4 1 1 2 2 2 1 2 2 3 1 5 8 6 6 6 4 6 8 6 5 3 2 2 3 5 5 7 8
5 2 1 1 2 8 4 3 2 1 1 0 2 0 4 1 2 2 2 2 2 3 3 3 2 5 7 8 8 8 8 6 4 3 4 4 2 3 4 3 3 3 5 6
1 1 1 3 7 0 1 2 1 2 2 3 3 4 3 2 1 2 2 1 1 2 2 3 2 4 4 4 5 6 6 5 6 6 4 5 4 3 4 6 5 5 5 4
4 1 2 2 2 1 2 2 1 3 2 2 3 3 4 4 2 0 2 1 2 1 2 2 2 4 4 5 1 3 3 4 3 1 3 2 2 4 5 5 6 6 5 5
1 0 2 2 1 1 3 2 2 2 3 3 3 2 3 1 1 2 1 2 3 3 2 3 4 3 5 3 1 1 1 1 2 4 4 3 3 5 4 6 5 6 4 3
1 1 3 2 2 2 1 2 3 4 3 4 3 2 3 2 2 2 2 2 1 2 1 3 2 3 3 3 2 1 1 4 4 4 4 5 4 4 6 6 6 6 4 2
0 1 2 2 2 1 5 5 3 3 4 4 2 2 2 2 2 1 1 2 2 4 1 2 3 3 3 2 2 1 2 2 3 3 3 4 4 1 5 6 7 6 3 3
0 1 2 3 2 3 3 1 7 4 3 2 2 1 3 2 1 2 3 2 2 1 3 3 4 4 4 2 2 3 3 2 1 2 1 2 4 3 3 5 7 8 5 5
2 3 2 3 4 5 3 1 5 3 3 3 2 4 4 2 2 2 3 2 1 3 4 4 3 4 6 6 5 5 4 3 3 1 0 1 2 4 2 5 6 6 6 5
Wind_Direction
355 353 350 349 353 351 36 3 354 315 345 47 63 14 318 302 304 358 61 93 104 74 8 9 63 91 7 329 333 98 175 153 301 257 291 274 109 121 96 126 233 333 145 257
355 353 355 350 352 0 337 4 275 316 41 69 345 320 305 289 340 337 89 147 144 60 61 91 106 129 336 8 45 134 192 54 39 336 357 30 87 24 93 99 77 213 157 258
354 355 358 355 349 354 74 20 345 329 35 49 75 3 306 328 329 331 16 97 348 107 146 21 140 128 113 344 75 53 76 129 169 195 216 175 223 186 184 138 133 213 226 266
355 357 359 358 349 349 66 23 344 172 320 348 358 280 321 329 328 352 21 24 109 143 192 147 160 168 324 345 341 41 88 241 206 263 269 292 268 267 224 193 199 191 220 239
355 358 0 360 356 347 71 41 13 351 282 307 319 5 68 5 329 347 326 91 310 75 190 215 210 176 200 222 148 124 9 249 174 287 273 258 263 266 254 234 231 249 256 277
353 358 1 4 9 16 55 331 341 100 296 333 340 284 334 317 2 288 57 337 7 280 258 238 223 198 206 221 178 187 165 143 120 260 350 349 291 237 230 207 197 184 204 231
348 351 358 3 11 57 132 255 90 63 282 311 287 326 307 294 302 263 307 339 210 317 348 18 43 309 274 252 252 173 154 141 134 211 41 231 250 317 208 182 206 209 232 202
338 341 351 354 1 18 69 213 92 119 279 259 296 333 301 324 308 265 267 311 241 292 29 50 3 329 352 197 36 161 148 130 90 140 211 299 282 84 62 81 282 225 249 304
327 329 343 343 351 11 76 266 131 109 94 252 321 315 313 284 309 325 290 321 311 48 87 104 194 220 244 270 111 65 76 78 116 158 143 220 245 167 113 134 293 44 49 324
317 320 334 329 338 356 96 271 127 116 217 271 272 223 245 289 329 258 320 338 336 28 115 163 184 231 203 229 223 180 127 53 162 169 221 283 248 129 113 87 246 291 268 292
310 319 319 313 325 343 86 269 193 109 277 274 231 248 221 219 119 154 304 344 306 342 163 153 215 190 226 256 252 184 175 148 204 105 181 273 99 65 163 220 251 250 275 265
298 309 309 302 333 320 157 294 265 39 198 248 257 225 230 187 194 152 258 248 273 222 95 190 103 181 44 141 227 353 209 179 190 170 218 238 300 231 269 200 229 266 270 284
291 301 313 316 311 303 277 234 85 50 310 293 334 251 249 193 212 177 157 263 233 261 168 160 161 200 125 187 242 277 297 162 189 26 294 254 255 265 236 228 246 273 271 273
274 285 298 300 304 345 356 181 189 117 246 285 282 297 282 207 166 184 193 208 43 107 82 98 126 184 154 216 241 192 209 140 183 267 284 291 307 236 270 293 284 282 287 270
268 276 292 314 332 331 344 213 216 190 160 273 286 306 266 285 203 197 188 196 103 44 43 126 235 195 126 347 40 250 189 188 161 219 232 215 260 271 286 283 300 315 315 311
270 268 291 323 325 29 27 353 99 187 167 273 296 293 294 305 267 159 157 127 125 144 146 211 252 251 110 119 236 256 221 203 180 234 250 223 260 282 313 297 325 329 330 313
269 252 290 295 295 107 163 209 167 189 70 48 307 317 285 301 88 106 107 140 197 161 145 206 189 279 113 139 231 253 241 242 253 247 258 295 237 291 314 353 330 327 305 299
22 300 288 292 292 319 308 258 260 206 104 75 285 275 326 7 344 66 30 125 118 333 169 84 177 16 99 266 247 270 270 276 280 277 240 237 272 282 2 355 357 339 332 327
264 290 304 333 172 194 247 313 117 115 136 228 230 273 292 332 280 107 63 49 133 219 195 214 117 168 233 229 241 259 243 241 302 319 313 302 322 292 310 351 347 349 326 328
307 24 331 233 223 278 276 298 156 54 340 220 248 295 269 13 4 345 102 16 198 193 217 117 164 252 259 251 234 243 260 230 241 271 326 341 340 348 314 295 280 285 308 318
39 318 271 265 306 352 75 196 194 165 232 203 237 206 245 280 180 254 227 204 170 211 171 187 201 274 252 268 268 240 242 235 224 234 263 248 233 290 311 304 288 293 305 308
205 279 319 329 20 39 256 226 175 214 256 207 212 220 210 270 186 146 211 220 188 265 132 210 243 257 268 291 271 160 171 189 231 238 330 313 324 291 290 287 293 278 269 314
6 202 250 70 231 16 258 247 170 256 207 229 217 260 237 296 197 253 178 81 225 143 184 219 232 266 289 287 193 93 230 309 48 16 360 329 340 323 303 311 301 292 272 308
22 348 305 200 220 265 298 290 243 254 258 282 245 221 218 172 166 200 223 224 92 159 245 248 246 263 308 313 240 125 28 18 13 26 8 8 4 332 342 348 334 328 302 357
3 95 278 261 332 196 246 250 280 278 246 280 258 198 215 157 191 231 194 232 241 191 214 254 262 284 297 325 8 283 324 347 358 1 14 5 6 22 350 346 348 351 357 58
342 240 290 271 258 301 320 332 298 264 243 268 187 105 181 145 207 201 230 298 82 48 305 283 307 312 325 314 287 256 248 283 299 307 325 10 12 331 273 357 10 357 13 66
304 276 246 239 258 250 273 291 285 315 338 354 43 20 17 303 324 37 8 38 337 304 289 275 262 307 317 314 300 263 237 242 268 195 304 283 16 7 9 353 350 1 17 73